Simultaneous Nadir Overpasses (SNOs) Predictions

Prediction of SNOs between AQUA and NPP Satellite Orbit:

Table of predicted SNOs for the next 14.0 days since TLE Epoch: 2/19/2022
Index Date (AQUA) Time (AQUA) Lat,Lon (AQUA) SZA (AQUA ) Date (NPP) Time (NPP) Lat,Lon (NPP) SZA (NPP ) Distance(km) Time Diff (sec)
1 02/20/2022 21:48:39 76.42, 93.60 107.77 02/20/2022 21:47:47 76.41, 93.53 107.84 2.16 52
2 02/20/2022 22:37:46 -77.37, -95.29 73.37 02/20/2022 22:38:11 -77.37, -95.30 73.39 0.30 25
3 02/23/2022 14:04:48 77.11,-148.04 105.99 02/23/2022 14:04:27 77.11,-147.95 105.98 2.16 21
4 02/23/2022 14:54:04 -77.62, 21.66 74.66 02/23/2022 14:55:01 -77.61, 21.60 74.69 1.61 57
5 02/26/2022 05:31:57 -76.57, 158.29 74.36 02/26/2022 05:30:51 -76.57, 158.35 74.32 1.62 66
6 02/26/2022 06:21:04 77.44, -30.81 104.59 02/26/2022 06:21:15 77.44, -30.73 104.56 2.12 11
7 02/28/2022 21:48:09 -77.04, -84.12 75.93 02/28/2022 21:47:35 -77.04, -84.01 75.93 2.80 34
8 02/28/2022 22:37:24 77.52, 85.46 103.46 02/28/2022 22:38:08 77.52, 85.37 103.45 2.42 44
9 03/03/2022 13:18:48 65.08,-157.43 115.54 03/03/2022 13:17:35 65.29,-158.71 115.85 63.99 73
10 03/03/2022 14:04:28 -77.20, 32.44 77.17 03/03/2022 14:04:27 -77.20, 32.42 77.16 0.43 1



Historial Predications of SNOs between AQUA and NPP
